Date String (YYYY-MM-DD hh:mm:ss) UTC,Instrument flags,Ambient pressure (hPa),Sample flow (lpm),Bypass flow (lpm),Sample temperature (°C),Ambient temperature (°C),ASC tube jacket temperature (°C),LED temperature (°C),Box temperature (°C),Sample RH (%),Span deviation,Mass concentration (μg/m³),Mass concentration (μg/m³),Mass concentration (μg/m³)
DateTimeUTC,F1_M11,P_M11,Q1_M11,Q2_M11,T1_M11,T2_M11,T3_M11,T4_M11,T5_M11,U1_M11,ZSPAN_M11,X0_M11,X2_M11,X1_M11
2021-12-22 08:00:00,,0822.3,5.01,0.00,23.7,23.1,00.0,32.6,25.5,03.4,0000.0,0001.93,0000.53,0000.34
2021-12-22 08:01:00,,0822.2,5.00,0.00,23.7,23.1,00.0,32.6,25.6,03.4,0000.0,0001.65,0000.54,0000.34
2021-12-22 08:02:00,,0822.2,5.00,0.00,23.8,23.1,00.0,32.6,25.5,03.4,0000.0,0001.31,0000.52,0000.33
2021-12-22 08:03:00,,0822.2,5.00,0.00,23.8,23.1,00.0,32.6,25.5,03.3,0000.0,0001.20,0000.51,0000.33
2021-12-22 08:04:00,,0822.4,4.99,0.00,23.8,23.1,00.0,32.6,25.5,03.3,0000.0,0001.07,0000.49,0000.33
2021-12-22 08:05:00,,0822.4,5.01,0.00,23.8,23.1,00.0,32.7,25.5,03.4,0000.0,0001.01,0000.48,0000.33
2021-12-22 08:06:00,,0822.4,4.99,0.00,23.8,23.1,00.0,32.7,25.5,03.3,0000.0,0000.92,0000.47,0000.33
2021-12-22 08:07:00,,0822.5,5.00,0.00,23.8,23.0,00.0,32.7,25.5,03.3,0000.0,0000.89,0000.46,0000.33
2021-12-22 08:08:00,,0822.4,5.01,0.00,23.7,23.0,00.0,32.7,25.5,03.4,0000.0,0001.39,0000.45,0000.33
2021-12-22 08:09:00,,0822.3,4.99,0.00,23.8,23.0,00.0,32.7,25.4,03.7,0000.0,0001.44,0000.45,0000.32
2021-12-22 08:10:00,,0822.3,5.04,0.00,23.8,23.0,00.0,32.7,25.5,03.8,0000.0,0001.42,0000.43,0000.31
2021-12-22 08:11:00,,0822.2,5.00,0.00,23.8,23.1,00.0,32.7,25.5,03.6,0000.0,0001.50,0000.40,0000.29
2021-12-22 08:12:00,,0822.1,5.00,0.00,23.8,23.0,00.0,32.7,25.5,03.6,0000.0,0001.50,0000.37,0000.29
2021-12-22 08:13:00,,0822.1,4.99,0.00,23.8,23.0,00.0,32.7,25.5,03.7,0000.0,0001.44,0000.35,0000.28
2021-12-22 08:14:00,,0822.1,5.00,0.00,23.8,23.0,00.0,32.7,25.5,03.8,0000.0,0001.27,0000.31,0000.26
2021-12-22 08:15:00,,0822.1,5.02,0.00,23.8,23.0,00.0,32.7,25.5,03.8,0000.0,0001.19,0000.29,0000.25
2021-12-22 08:16:00,,0822.1,4.99,0.00,23.8,23.0,00.0,32.7,25.5,03.7,0000.0,0001.15,0000.28,0000.24
2021-12-22 08:17:00,,0822.2,5.01,0.00,23.8,23.0,00.0,32.7,25.5,03.7,0000.0,0001.10,0000.25,0000.23
2021-12-22 08:18:00,,0822.2,5.00,0.00,23.8,23.0,00.0,32.7,25.5,03.6,0000.0,0001.09,0000.25,0000.23
2021-12-22 08:19:00,,0822.2,4.99,0.00,23.8,23.0,00.0,32.7,25.5,03.6,0000.0,0000.65,0000.24,0000.22
2021-12-22 08:20:00,,0822.2,5.01,0.00,23.8,23.0,00.0,32.8,25.5,03.5,0000.0,0000.57,0000.24,0000.22
2021-12-22 08:21:00,,0822.2,4.99,0.00,23.8,23.0,00.0,32.8,25.5,03.5,0000.0,0000.59,0000.24,0000.22
2021-12-22 08:22:00,,0822.1,5.00,0.00,23.8,23.1,00.0,32.8,25.5,03.5,0000.0,0000.48,0000.24,0000.22
2021-12-22 08:23:00,,0822.1,5.02,0.00,23.8,23.1,00.0,32.8,25.5,03.5,0000.0,0000.36,0000.24,0000.23
2021-12-22 08:24:00,,0822.1,4.99,0.00,23.8,23.1,00.0,32.8,25.5,03.5,0000.0,0000.40,0000.25,0000.23
2021-12-22 08:25:00,,0822.0,5.00,0.00,23.8,23.1,00.0,32.8,25.5,03.5,0000.0,0000.44,0000.27,0000.24
2021-12-22 08:26:00,,0822.1,5.01,0.00,23.8,23.0,00.0,32.8,25.5,03.5,0000.0,0000.48,0000.30,0000.25
2021-12-22 08:27:00,,0822.1,5.00,0.00,23.9,23.0,00.0,32.8,25.5,03.4,0000.0,0000.51,0000.31,0000.25
2021-12-22 08:28:00,,0822.1,4.99,0.00,23.8,23.0,00.0,32.8,25.5,03.4,0000.0,0000.51,0000.32,0000.26
2021-12-22 08:29:00,,0822.1,5.01,0.00,23.8,23.0,00.0,32.8,25.5,03.4,0000.0,0000.53,0000.33,0000.26
2021-12-22 08:30:00,,0822.0,4.99,0.00,23.9,23.0,00.0,32.8,25.5,03.4,0000.0,0000.57,0000.34,0000.26
2021-12-22 08:31:00,,0821.9,5.00,0.00,23.9,23.0,00.0,32.8,25.5,03.5,0000.0,0000.47,0000.33,0000.26
2021-12-22 08:32:00,,0821.9,5.00,0.00,23.9,23.0,00.0,32.8,25.5,03.5,0000.0,0000.49,0000.34,0000.27
2021-12-22 08:33:00,,0822.2,5.00,0.00,23.8,23.0,00.0,32.8,25.5,03.6,0000.0,0000.51,0000.34,0000.27
2021-12-22 08:34:00,,0822.0,5.00,0.00,23.9,23.0,00.0,32.8,25.5,03.6,0000.0,0000.50,0000.34,0000.26
2021-12-22 08:35:00,,0822.0,5.00,0.00,23.9,23.0,00.0,32.8,25.5,03.5,0000.0,0000.46,0000.32,0000.25
2021-12-22 08:36:00,,0821.9,5.01,0.00,23.8,23.0,00.0,32.8,25.4,03.5,0000.0,0000.47,0000.32,0000.25
2021-12-22 08:37:00,,0821.9,4.99,0.00,23.8,23.0,00.0,32.8,25.4,03.4,0000.0,0000.45,0000.32,0000.25
2021-12-22 08:38:00,,0822.0,5.01,0.00,23.8,23.0,00.0,32.8,25.5,03.4,0000.0,0000.43,0000.31,0000.25
2021-12-22 08:39:00,,0822.0,5.00,0.00,23.8,23.0,00.0,32.8,25.5,03.4,0000.0,0000.44,0000.32,0000.26
2021-12-22 08:40:00,,0822.1,5.00,0.00,23.8,22.9,00.0,32.8,25.5,03.5,0000.0,0000.50,0000.35,0000.26
2021-12-22 08:41:00,,0822.1,5.00,0.00,23.8,22.9,00.0,32.8,25.5,03.4,0000.0,0000.50,0000.35,0000.27
2021-12-22 08:42:00,,0822.1,4.99,0.00,23.8,22.9,00.0,32.8,25.5,03.4,0000.0,0000.50,0000.36,0000.27
2021-12-22 08:43:00,,0822.2,5.01,0.00,23.8,22.9,00.0,32.8,25.5,03.4,0000.0,0000.47,0000.35,0000.27
2021-12-22 08:44:00,,0822.2,4.99,0.00,23.8,22.9,00.0,32.8,25.5,03.4,0000.0,0000.46,0000.35,0000.28
2021-12-22 08:45:00,,0822.1,4.99,0.00,23.8,22.9,00.0,32.8,25.4,03.4,0000.0,0000.46,0000.35,0000.28
2021-12-22 08:46:00,,0822.1,5.01,0.00,23.8,22.9,00.0,32.8,25.4,03.3,0000.0,0000.47,0000.36,0000.29
2021-12-22 08:47:00,,0822.0,4.99,0.00,23.8,22.9,00.0,32.8,25.4,03.3,0000.0,0000.46,0000.36,0000.30
2021-12-22 08:48:00,,0822.1,4.99,0.00,23.8,22.9,00.0,32.8,25.4,03.3,0000.0,0000.50,0000.38,0000.30
2021-12-22 08:49:00,,0822.1,5.00,0.00,23.8,22.8,00.0,32.8,25.3,03.3,0000.0,0000.57,0000.41,0000.30
2021-12-22 08:50:00,,0822.1,5.01,0.00,23.8,22.8,00.0,32.8,25.3,03.3,0000.0,0000.56,0000.41,0000.29
2021-12-22 08:51:00,,0822.1,4.99,0.00,23.7,22.8,00.0,32.8,25.3,03.3,0000.0,0000.48,0000.37,0000.29
2021-12-22 08:52:00,,0821.9,5.01,0.00,23.7,22.8,00.0,32.8,25.3,03.3,0000.0,0000.45,0000.36,0000.29
2021-12-22 08:53:00,,0822.1,4.99,0.00,23.7,22.8,00.0,32.8,25.3,03.3,0000.0,0000.45,0000.36,0000.29
2021-12-22 08:54:00,,0822.0,5.01,0.00,23.7,22.8,00.0,32.8,25.3,03.4,0000.0,0000.45,0000.36,0000.29
2021-12-22 08:55:00,,0821.9,4.99,0.00,23.7,22.8,00.0,32.8,25.4,03.3,0000.0,0000.45,0000.35,0000.28
2021-12-22 08:56:00,,0821.9,5.00,0.00,23.7,22.8,00.0,32.8,25.4,03.3,0000.0,0000.46,0000.37,0000.28
2021-12-22 08:57:00,,0821.9,5.01,0.00,23.7,22.7,00.0,32.8,25.3,03.3,0000.0,0000.47,0000.37,0000.29
2021-12-22 08:58:00,,0821.9,4.99,0.00,23.7,22.7,00.0,32.8,25.3,03.3,0000.0,0000.47,0000.37,0000.28
2021-12-22 08:59:00,,0822.0,5.00,0.00,23.7,22.7,00.0,32.8,25.3,03.4,0000.0,0000.43,0000.35,0000.28
